EKRAN 2 DEB, 29014

Orbit data source: Space-Track

EKRAN 2 DEB, 29014 is space debris in GEO originally from a launch on Tue, 20 Sep 1977 UTC launched from the Tyuratam Missile And Space Complex (TTMTR). Debris objects in space refer to the collection of defunct objects orbiting the Earth. Examples of debris include non-operational satellites, rocket bodies, and fragments generated from explosions, collisions, or faulty payload assembly.

Not visible in the next 10 days
EKRAN 2 DEB details
Identifier
29014, 1977-092K
Orbit
GEO
Last TLE update1 day ago
Origin
Flag of CISGUKOS RVSN (CIS)
ManufacturerUnknown
MissionSpacecraft
Bus & MotorUnknown
MassUnknown
Launch date (UTC)
1977-09-20 (47 years ago)
Launch vehicleUnknown
Launch site
Tyuratam Missile And Space Complex (TTMTR)
Object type
Payload
Rocket body
Debris
Shape & HBRUnknown
Radar Cross SectionMedium (>0.1 m² and <1 m²)

Expand to show TLE details & history

TLE from 1 day ago
0 EKRAN 2 DEB
1 29014U 77092K   25035.12481587  .00000057  00000-0  00000-0 0  9994
2 29014   5.4134 280.9206 0019122 333.7385 348.3248  1.00102860 42285
Epoch: 2025-02-04T02:59Z
Definitive object data (Epoch: 2025-02-04T02:59:44.091Z)
Latitude-3.32543°
Longitude63.62255°
Altitude35,755.192 km
Speed3.079 km/s
True Right ascension16h 12m 21s
True Declination-3° 19' 19"
Sunlit
Object was in daylight at TLE epoch
Visualization TLE readout
Latitude3.13671°
Longitude136.95735°
Altitude35,794.748 km
Speed3.076 km/s
Apparent Right ascension21h 10m 40s
Apparent Declination-2° 09' 19"
Sunlit
Object is in daylight
Visualization observer readout
Local Sidereal Time09:53:41
Azimuth17.23° NNE
Elevation-50.998°
Doppler factor1
Orbital elements
Apogee altitude35,915.793 km
Perigee altitude35,754.353 km
Semi-major axis42,213.21 km
Eccentricity0.0019122
Inclination5.4134°
RAAN280.9206°
Arg. of periapsis333.7385°
True anomaly348.28035°
Mean anomaly348.3248°
Eccentric anomaly348.30259°
Mean motion0.25025 °/min
BSTARUnknown
Orbital period1438.57 mins
Loading historical data...
29014 neighbors
Authenticating...
Loading maneuver chart data...
Loading historical data...
Loading historical data...
Loading historical data...
Loading historical data...
Loading historical data...
Loading historical data...
Loading historical data...

EKRAN 2 DEB Visibility forecast

Observer location: undefined°, undefined

EKRAN 2 DEB is not visible in the next 10 days
Span
Click to sort rows by Start time (UTC) header in descending order
Start Az.
Max El. time (UTC)
Max El. Az.
Max El.
End time (UTC)
End Az.
|